Location: Memmingen
(47.9830°N, 10.1733°E)
Time: 10:05:12
(UTC+01:00)

ISS - Pass Details

Date: 12 January 2018
Orbit: 402 x 407 km, 51.6° (Epoch: 21 January)

Event Time Altitude Azimuth Distance (km) Brightness Sun altitude
Exits shadow 04:51:02 10° 86° (E) 1,449 -0.2 -31.9°
Drops below altitude 10° 04:51:04 10° 86° (E) 1,466 -0.1 -31.9°
Sets 04:53:12 0° 92° (E) 2,327 1.2 -31.5°
